Weather History for KFHU - May, 2009

Change the Weather History Date:

Monday, May 11, 2009

  Actual Average Record
Temperature  
Mean Temperature 78 °F -  
Max Temperature 93 °F 82 °F 93 °F (2001)
Min Temperature 62 °F 59 °F 41 °F (1985)
Cooling Degree Days 12    
Growing Degree Days 28 (Base 50)    
Moisture  
Dew Point 19 °F    
Average Humidity 12    
Maximum Humidity 24    
Minimum Humidity 4    
Precipitation  
Precipitation 0.00 in - - ()
Sea Level Pressure  
Sea Level Pressure 29.81 in    
Wind  
Wind Speed 4 mph (WSW)    
Max Wind Speed 17 mph    
Max Gust Speed 23 mph    
Visibility 10 miles    
Events      
Averages and records for this station are not official NWS values.
T = Trace of Precipitation, MM = Missing Value Source: NWS Daily Summary

Daily Weather History Graph

Daily Weather History Graph

Search for Another Location

Airport or City:

Trip Planner

Search our weather history database for the weather conditions in past years. The results will help you decide how hot, cold, wet, or windy it might be!

Date:

Astronomy

May. 11, 2009 Rise Set
Actual Time 5:27 AM MST 7:08 PM MST
Civil Twilight 5:00 AM MST 7:34 PM MST
Nautical Twilight 4:29 AM MST 8:06 PM MST
Astronomical Twilight 3:55 AM MST 8:40 PM MST
Moon 9:54 PM MST (5/11) 7:00 AM MST (5/11)
Length of Visible Light 14h 33m
Length of Day
13h 40m
Waning Gibbous, 93% of the Moon is Illuminated
May 11
Waning Gibbous
May 17
Last Quarter
May 24
New
May 30
First Quarter
Jun 7
Full

Hourly Weather History & Observations

Time (MST) Temp. Dew Point Humidity Pressure Visibility Wind Dir Wind Speed Gust Speed Precip Events Conditions
12:56 AM 71.1 °F 19.9 °F 14% 29.81 in 10.0 mi Calm Calm - N/A   Clear
1:56 AM 68.0 °F 19.9 °F 16% 29.82 in 10.0 mi Calm Calm - N/A   Clear
2:56 AM 64.9 °F 18.0 °F 16% 29.83 in 10.0 mi Calm Calm - N/A   Clear
3:56 AM 63.0 °F 19.0 °F 18% 29.83 in 10.0 mi South 4.6 mph - N/A   Clear
4:56 AM 62.1 °F 21.9 °F 21% 29.85 in 10.0 mi Calm Calm - N/A   Clear
5:55 AM 64.4 °F 26.6 °F 24% 29.85 in 50.0 mi SW 3.5 mph - N/A   Partly Cloudy
6:55 AM 75.2 °F 28.4 °F 18% 29.85 in 50.0 mi Variable 2.3 mph - N/A   Partly Cloudy
7:55 AM 77.0 °F 26.6 °F 16% 29.87 in 50.0 mi Variable 2.3 mph - N/A   Partly Cloudy
8:55 AM 80.6 °F 24.8 °F 13% 29.86 in 50.0 mi Variable 3.5 mph - N/A   Partly Cloudy
9:55 AM 84.2 °F 23.0 °F 11% 29.86 in 50.0 mi Variable 2.3 mph - N/A   Partly Cloudy
10:55 AM 87.8 °F 21.2 °F 9% 29.84 in 50.0 mi Variable 4.6 mph - N/A   Partly Cloudy
11:55 AM 91.4 °F 3.2 °F 4% 29.81 in 50.0 mi West 8.1 mph - N/A   Partly Cloudy
12:55 PM 91.4 °F 8.6 °F 5% 29.81 in 50.0 mi West 15.0 mph 23.0 mph N/A   Partly Cloudy
1:55 PM 93.2 °F 6.8 °F 4% 29.79 in 50.0 mi West 9.2 mph 15.0 mph N/A   Partly Cloudy
2:55 PM 93.2 °F 12.2 °F 5% 29.78 in 50.0 mi SSW 8.1 mph - N/A   Partly Cloudy
3:55 PM 91.4 °F 12.2 °F 5% 29.78 in 50.0 mi WNW 12.7 mph - N/A   Partly Cloudy
4:55 PM 91.4 °F 17.6 °F 7% 29.77 in 50.0 mi SW 17.3 mph 19.6 mph N/A   Partly Cloudy
5:55 PM 89.6 °F 19.4 °F 8% 29.76 in 50.0 mi WSW 12.7 mph - N/A   Partly Cloudy
6:55 PM 86.0 °F 17.6 °F 8% 29.76 in 50.0 mi WSW 11.5 mph - N/A   Partly Cloudy
7:55 PM 82.4 °F 17.6 °F 9% 29.77 in 35.0 mi WSW 10.4 mph - N/A   Partly Cloudy
8:55 PM 80.6 °F 15.8 °F 9% 29.79 in 10.0 mi WSW 12.7 mph - N/A   Clear
9:55 PM 78.8 °F 21.2 °F 12% 29.79 in 10.0 mi West 8.1 mph - N/A   Clear
10:55 PM 78.8 °F 23.0 °F 13% 29.79 in 10.0 mi West 10.4 mph - N/A   Clear
11:56 PM 73.0 °F 21.9 °F 15% 29.80 in 10.0 mi Calm Calm - N/A   Clear